Location: ??
(35.5653°N, 139.6194°E)
Time: 19:26:41
(UTC+00:00)

OAO 3 Copernicus - Pass Details

Date: 20 November 2019
Orbit: 695 x 705 km, 35.0° (Epoch: 05 December)

Event Time Altitude Azimuth Distance (km) Brightness Sun altitude
Exits shadow 20:42:38 - 271° (W) 2,227 6.3 -8.3°
Reaches altitude 10° 20:42:51 10° 271° (W) 2,143 6.2 -8.3°
Maximum altitude 20:47:53 85° 183° (S) 698 4.4 -7.3°
Drops below altitude 10° 20:52:54 10° 96° (E) 2,141 8.4 -6.4°
Sets 20:55:18 0° 95° (E) 3,058 9.5 -5.9°
